Location: Lixville
(37.5770°N, 89.9118°W)
Time: 14:06:56
(UTC+00:00)

Courier 1B Rocket - Pass Details

Date: 08 November 2024
Orbit: 920 x 1201 km, 28.2° (Epoch: 02 December)

Event Time Altitude Azimuth Distance (km) Brightness Sun altitude
Rises 23:14:36 0° 231° (SW) 3,625 9.6 -4.7°
Reaches altitude 10° 23:17:41 10° 219° (SW) 2,647 8.3 -5.3°
Maximum altitude 23:22:48 26° 165° (SSE) 1,731 6.4 -6.3°
Drops below altitude 10° 23:27:50 10° 111° (ESE) 2,603 6.8 -7.2°
Enters shadow 23:29:26 - 103° (ESE) 3,093 7.1 -7.5°
